User: anonymous   Login
Location: Wilsall
(45.9940°N, 110.6590°W)
Time: 13:50:39
(UTC-06:00)
Language:

GP-B - Orbit

View from above orbital plane
View from above orbital plane
View from above satellite
View from above satellite

Ground track
Ground track

The orbit data is extracted from the following two-line orbital elements,

1 28230U 04014A   17232.79523090  .00000131  00000-0  15722-4 0  9990
2 28230  89.8458 120.8144 0002080  79.9128 280.2329 14.78554128718642
Epoch (UTC): 20 August 2017 19:05:07
Eccentricity: 0.0002080
inclination: 89.8458°
perigee height: 632 km
apogee height: 635 km
right ascension of ascending node: 120.8144°
argument of perigee: 79.9128°
revolutions per day: 14.78554128
mean anomaly at epoch: 280.2329°
orbit number at epoch: 71864

The dashed part of the orbit path shows where the satellite is in the earth's shadow,  

DLR